TimeEDT,TemperatureF,Dew PointF,Humidity,Sea Level PressureIn,VisibilityMPH,Wind Direction,Wind SpeedMPH,Gust SpeedMPH,PrecipitationIn,Events,Conditions,WindDirDegrees,DateUTC
12:53 AM,57.0,55.9,96,29.75,3.0,Calm,Calm,-,N/A,,Mostly Cloudy,0,2011-10-13 04:53:00
12:56 AM,57.2,55.4,94,29.79,0.8,Calm,Calm,-,N/A,,Clear,0,2011-10-13 04:56:00
1:03 AM,57.2,55.4,94,29.79,3.0,Calm,Calm,-,N/A,,Mostly Cloudy,0,2011-10-13 05:03:00
1:53 AM,55.0,55.0,100,29.73,3.0,Calm,Calm,-,N/A,,Mostly Cloudy,0,2011-10-13 05:53:00
1:57 AM,55.4,55.4,100,29.77,2.0,Calm,Calm,-,N/A,,Overcast,0,2011-10-13 05:57:00
2:12 AM,55.4,53.6,94,29.76,2.0,Calm,Calm,-,N/A,,Overcast,0,2011-10-13 06:12:00
2:25 AM,55.4,53.6,94,29.76,2.0,Calm,Calm,-,N/A,,Overcast,0,2011-10-13 06:25:00
2:53 AM,55.0,54.0,96,29.70,2.0,Calm,Calm,-,N/A,,Overcast,0,2011-10-13 06:53:00
3:53 AM,55.0,54.0,96,29.68,1.0,Calm,Calm,-,N/A,,Mist,0,2011-10-13 07:53:00
4:13 AM,55.4,53.6,94,29.73,0.2,Calm,Calm,-,N/A,Fog,Fog,0,2011-10-13 08:13:00
4:24 AM,55.4,53.6,94,29.73,0.1,Calm,Calm,-,N/A,Fog,Fog,0,2011-10-13 08:24:00
4:53 AM,54.0,53.1,97,29.67,0.1,Calm,Calm,-,N/A,Fog,Fog,0,2011-10-13 08:53:00
5:53 AM,54.0,53.1,97,29.67,0.1,Calm,Calm,-,N/A,Fog,Fog,0,2011-10-13 09:53:00
6:44 AM,55.4,53.6,94,29.71,0.8,Calm,Calm,-,N/A,,Overcast,0,2011-10-13 10:44:00
6:53 AM,55.0,54.0,96,29.66,0.8,Calm,Calm,-,N/A,,Overcast,0,2011-10-13 10:53:00
7:25 AM,55.4,55.4,100,29.71,0.5,Calm,Calm,-,N/A,Fog,Fog,0,2011-10-13 11:25:00
7:51 AM,55.4,55.4,100,29.70,1.0,Calm,Calm,-,0.02,,Overcast,0,2011-10-13 11:51:00
7:53 AM,55.9,55.0,97,29.65,1.0,Calm,Calm,-,0.02,,Overcast,0,2011-10-13 11:53:00
8:53 AM,57.0,55.9,96,29.64,1.2,Calm,Calm,-,N/A,,Overcast,0,2011-10-13 12:53:00
9:00 AM,57.2,55.4,94,29.69,1.2,Calm,Calm,-,N/A,,Overcast,0,2011-10-13 13:00:00
9:53 AM,59.0,57.0,93,29.64,1.2,Calm,Calm,-,N/A,,Overcast,0,2011-10-13 13:53:00
10:46 AM,59.0,57.2,94,29.67,1.5,SW,3.5,-,N/A,,Overcast,220,2011-10-13 14:46:00
10:53 AM,59.0,57.0,93,29.62,1.5,Calm,Calm,-,N/A,,Overcast,0,2011-10-13 14:53:00
11:12 AM,60.8,57.2,88,29.66,1.5,Calm,Calm,-,N/A,,Overcast,0,2011-10-13 15:12:00
11:27 AM,60.8,57.2,88,29.66,1.5,Calm,Calm,-,N/A,,Overcast,0,2011-10-13 15:27:00
11:48 AM,60.8,57.2,88,29.65,2.0,Calm,Calm,-,N/A,,Overcast,0,2011-10-13 15:48:00
11:53 AM,62.1,59.0,90,29.60,2.0,Calm,Calm,-,N/A,,Overcast,0,2011-10-13 15:53:00
12:13 PM,62.6,57.2,82,29.66,2.0,Calm,Calm,-,N/A,,Overcast,0,2011-10-13 16:13:00
12:53 PM,62.1,57.9,86,29.60,2.0,Calm,Calm,-,0.02,Rain,Light Rain,0,2011-10-13 16:53:00
1:01 PM,62.6,57.2,82,29.64,2.0,Calm,Calm,-,0.01,Rain-Thunderstorm,Light Thunderstorms and Rain,0,2011-10-13 17:01:00
1:24 PM,62.6,59.0,88,29.63,2.0,NW,3.5,-,0.01,,Overcast,320,2011-10-13 17:24:00
1:41 PM,62.6,59.0,88,29.62,5.0,WNW,4.6,-,0.01,,Overcast,300,2011-10-13 17:41:00
1:53 PM,63.0,60.1,90,29.57,5.0,WNW,4.6,-,0.01,,Overcast,290,2011-10-13 17:53:00
2:27 PM,62.6,59.0,88,29.61,5.0,WSW,5.8,-,0.00,Rain-Thunderstorm,Light Thunderstorms and Rain,250,2011-10-13 18:27:00
2:39 PM,62.6,60.8,94,29.62,2.0,SW,5.8,-,0.04,Rain-Thunderstorm,Heavy Thunderstorms and Rain,230,2011-10-13 18:39:00
2:53 PM,62.1,60.1,93,29.55,2.0,WNW,4.6,-,0.10,Rain-Thunderstorm,Thunderstorms and Rain,300,2011-10-13 18:53:00
3:11 PM,64.4,60.8,88,29.59,4.0,Calm,Calm,-,0.01,Rain,Light Rain,0,2011-10-13 19:11:00
3:50 PM,64.4,59.0,83,29.58,7.0,SSW,4.6,-,0.01,,Overcast,210,2011-10-13 19:50:00
3:53 PM,64.9,59.0,81,29.53,7.0,South,4.6,-,0.01,,Overcast,190,2011-10-13 19:53:00
4:33 PM,64.4,60.8,88,29.58,10.0,Calm,Calm,-,N/A,,Overcast,0,2011-10-13 20:33:00
4:53 PM,64.9,60.1,84,29.53,10.0,Calm,Calm,-,N/A,,Overcast,0,2011-10-13 20:53:00
5:13 PM,62.6,60.8,94,29.59,1.0,Variable,6.9,-,0.01,Rain,Rain,0,2011-10-13 21:13:00
5:17 PM,62.6,57.2,82,29.59,4.0,SW,6.9,-,0.10,Rain,Light Rain,220,2011-10-13 21:17:00
5:53 PM,63.0,60.1,90,29.55,7.0,SSW,9.2,-,0.12,Rain,Light Rain,200,2011-10-13 21:53:00
6:53 PM,62.1,57.9,86,29.55,10.0,WSW,10.4,-,0.02,Rain,Light Rain,240,2011-10-13 22:53:00
7:53 PM,60.1,57.0,90,29.58,10.0,SW,6.9,-,0.00,,Overcast,220,2011-10-13 23:53:00
8:09 PM,60.8,55.4,82,29.64,10.0,SW,9.2,-,N/A,,Overcast,230,2011-10-14 00:09:00
8:45 PM,59.0,57.2,94,29.64,10.0,WSW,4.6,-,N/A,,Mostly Cloudy,250,2011-10-14 00:45:00
8:53 PM,60.1,55.9,86,29.59,10.0,WSW,5.8,-,N/A,,Mostly Cloudy,240,2011-10-14 00:53:00
9:53 PM,60.1,57.0,90,29.60,10.0,SSW,5.8,-,N/A,,Overcast,210,2011-10-14 01:53:00
10:03 PM,60.8,57.2,88,29.65,8.0,SW,6.9,-,0.00,Rain,Light Rain,220,2011-10-14 02:03:00
10:28 PM,60.8,57.2,88,29.65,10.0,SSW,5.8,-,0.00,,Light Drizzle,210,2011-10-14 02:28:00
10:53 PM,60.1,57.0,90,29.60,10.0,SSW,6.9,-,0.00,,Overcast,210,2011-10-14 02:53:00
11:53 PM,59.0,55.9,90,29.60,10.0,SW,9.2,-,N/A,,Overcast,220,2011-10-14 03:53:00